GLONASS-K 1 (37372 NORAD) Tracking and Keplerian Element Data

This shows tracking and keplerian element data for the satellite.

Feedback or suggestion? Click here.




ElementValue
Catalog37372
NameGLONASS-K 1
Epoch Orbit5997
Epoch Day315.73953816
Epoch Year2018
RAAN47.3437
Inclination65.646
Eccentricity0.0009193
Argument of Perigee224.7918
Mean Anonmoly152.1455
Mean Motion2.13107635
Decay Rate-5.8E-07
L11 37372U 11009A 18315.73953816 -.00000058 00000-0 00000-0 0 9997
L22 37372 65.6460 47.3437 0009193 224.7918 152.1455 2.13107635 59975

Live tracking and technical data element details for GLONASS-K 1 (NORAD 37372). GLONASS-K 1 can be tracked NOW for your location showing map with azimuth and elevation plus other details from your city location.

Track the satellite on the map from your city or location and see movement details for azimuth, elevation, latitude, longitude, range, height, and movement on the map or in text.







IsCatalogInMostPopularTable: catalog: 37372, numindb: 59
Update: records affected: 1



GetName: 37372 GLONASS-K 1

Hit Count: updated at: Mon, 12 Nov 2018 21:43:22 GMT